Regional Weather Roundup
Issued by NWS

Home | Current Version | Previous Version | Graphics & Text | Print | Product List | Glossary On
Versions: 1 2 3 4 5 6 7 8 9 10 11 12 13 14 15 16 17 18 19 20 21 22 23 24 25 26 27 28 29 30 31 32 33 34 35 36 37 38 39 40 41 42 43 44 45 46 47 48 49 50
000
ASUS43 KDMX 260901
RWRIA

WEATHER ROUNDUP FOR IOWA
NATIONAL WEATHER SERVICE DES MOINES IA
300 AM CST SUN FEB 26 2017

NOTE: "FAIR" INDICATES FEW OR NO CLOUDS BELOW 12,000 FEET WITH NO
SIGNIFICANT WEATHER AND/OR OBSTRUCTIONS TO VISIBILITY.

* - THESE STATIONS ARE NOT NWS STATIONS...THUS NOT UNDER NWS
QUALITY CONTROL.  THEY ALSO DO NOT REPORT WEATHER SUCH
AS PRECIPITATION OR FOG.

IAZ001>003-012>014-020>022-031>034-043>046-261000-
   NORTHWEST IOWA

CITY           SKY/WX    TMP DP  RH WIND       PRES   REMARKS
CARROLL *      CLEAR     28  23  80 SW15      29.82R WCI  17
CHEROKEE *     CLOUDY    21  19  90 S3        29.80F
DENISON *      CLEAR     23  19  86 SW6       29.82S WCI  16
LE MARS *      CLOUDY    19  18  93 S6        29.81S WCI  11
SHELDON *      CLEAR     21  21 100 SW10      29.76F WCI  10
SIOUX CITY     CLEAR     16  13  88 S3        29.83R
SPENCER        CLEAR     20  15  81 SW13      29.78S WCI   7
STORM LAKE *   CLOUDY    25  19  80 SW12      29.79F WCI  14
$$

IAZ055>058-069>071-079>083-090>094-261000-
   SOUTHWEST IOWA

CITY           SKY/WX    TMP DP  RH WIND       PRES   REMARKS
ATLANTIC *     CLOUDY    30  23  74 SW17      29.85F WCI  18
AUDUBON *      CLEAR     30  21  69 SW10      29.84S WCI  21
CLARINDA *     CLEAR     32  21  64 SW12      29.94S WCI  23
COUNCIL BLFS * PTCLDY    30  21  69 SW15G21   29.85F WCI  19
CRESTON *      CLOUDY    28  19  69 SW16      29.90S WCI  17
HARLAN  *      PTCLDY    28  23  80 SW13      29.89R WCI  18
LAMONI         CLOUDY    30  15  53 S15       29.91F WCI  19
RED OAK *      MOCLDY    32  23  69 SW12      29.89F WCI  23
SHENANDOAH *   PTCLDY    32  23  69 SW13      29.91F WCI  22
$$

IAZ047>049-059>061-072>074-084-261000-
   CENTRAL IOWA

CITY           SKY/WX    TMP DP  RH WIND       PRES   REMARKS
AMES           CLEAR     30  20  66 SW14      29.84F WCI  19
ANKENY *       PTCLDY    30  18  59 S12       29.88F WCI  21
BOONE *        CLEAR     30  18  59 SW13      29.82F WCI  20
CHARITON *     CLOUDY    30  18  59 S15       29.90F WCI  19
DES MOINES     PTCLDY    31  17  56 S13       29.87F WCI  21
GRINNELL*      MOCLDY    29  19  66 S15       29.90F WCI  18
KNOXVILLE *    CLOUDY    32  16  51 S14       29.89F WCI  22
MARSHALLTOWN   PTCLDY    29  19  66 S17       29.85F WCI  17
NEWTON *       MOCLDY    30  18  59 S13       29.87F WCI  20
PELLA *        CLOUDY    32  17  53 S10G17    29.92F WCI  24
PERRY *          N/A     28  22  78 S12       29.84F WCI  18
$$

IAZ004>006-015-016-023>025-035-036-261000-
   NORTH CENTRAL IOWA

CITY           SKY/WX    TMP DP  RH WIND       PRES   REMARKS
ALGONA *       PTCLDY    16  14  93 S10       29.79S WCI   3
CLARION *      CLOUDY    23  19  86 S8        29.81F WCI  14
ESTHERVILLE    CLEAR     12  10  92 S8        29.77F WCI   0
FORT DODGE *   CLOUDY    25  16  68 SW10      29.82F WCI  15
MASON CITY     PTCLDY    21  16  81 S9        29.81F WCI  11
FOREST CITY *    N/A     23  18  80 SW5       29.80S WCI  17
WEBSTER CITY * CLOUDY    28  19  69 S14       29.79F WCI  17
IOWA FALLS *   MOCLDY    28  21  75 S13       29.84S WCI  17
$$

IAZ007>011-017>019-026>030-037>042-050>054-066-261000-
   NORTHEAST IOWA

CITY           SKY/WX    TMP DP  RH WIND       PRES   REMARKS
CEDAR RAPIDS   CLOUDY    28  19  69 S13       29.91F WCI  17
CHARLES CITY * CLOUDY    27  21  80 S13       29.82F WCI  16
CLINTON *      CLOUDY    26  21  81 SE8       29.98F WCI  18
DECORAH *      CLOUDY    28  19  69 S12G18    29.82F WCI  18
DUBUQUE        CLOUDY    25  19  78 S10       29.92F WCI  15
MONTICELLO *   CLOUDY    27  19  74 S8        29.93F WCI  18
OELWEIN *      CLOUDY    28  21  74 S17       29.86F WCI  16
WATERLOO       CLOUDY    27  19  72 S15       29.85F WCI  15
$$

IAZ064-065-067-068-078-261000-
   EAST CENTRAL IOWA

CITY           SKY/WX    TMP DP  RH WIND       PRES   REMARKS
DAVENPORT      CLOUDY    27  18  69 S12       29.98F WCI  17
IOWA CITY      CLOUDY    29  19  66 SE7       29.97F WCI  22
MUSCATINE *    CLOUDY    28  19  69 S8        29.99F WCI  20
QUAD CITIES    CLOUDY    29  17  61 S9        29.99F WCI  20
$$

IAZ062-063-075>077-085>089-095>099-261000-
   SOUTHEAST IOWA

CITY           SKY/WX    TMP DP  RH WIND       PRES   REMARKS
BURLINGTON     CLOUDY    30  17  58 S10       30.00F WCI  21
FAIRFIELD *    CLOUDY    30  14  51 S12       29.95F WCI  21
KEOKUK *       CLOUDY    30  16  55 S12       30.00S WCI  21
CENTERVILLE *    N/A     30  16  55 S14       29.95S WCI  20
OTTUMWA        CLOUDY    30  16  56 S14       29.93F WCI  19
WASHINGTON *   CLOUDY    28  19  69 S13       29.97F WCI  18
$$

ABBREVIATIONS USED IN REMARKS
   TC - TEMPERATURES IN CELSIUS
  WCI - WIND CHILL INDEX
   HX - HEAT INDEX
  VSB - VISIBILITY
$$





USA.gov is the U.S. government's official web portal to all federal, state and local government web resources and services.